Regional Weather Roundup
Issued by NWS

Home | Current Version | Previous Version | Text Only | Print | Product List | Glossary Off
Versions: 1 2 3 4 5 6 7 8 9 10 11 12 13 14 15 16 17 18 19 20 21 22 23 24 25 26 27 28 29 30 31 32 33 34 35 36 37 38 39 40 41 42 43 44 45 46 47 48 49 50

000
ASUS45 KCYS 281710
RWRWY

WYOMING REGIONAL WEATHER ROUNDUP
NATIONAL WEATHER SERVICE CHEYENNE WY
1100 AM MDT MON JUL 28 2014

NOTE:  "FAIR" INDICATES FEW OR NO CLOUDS BELOW 12,000 FEET
WITH NO SIGNIFICANT WEATHER AND/OR OBSTRUCTIONS TO VISIBILITY.

WYZ001-281800-
YELLOWSTONE NATIONAL PARK

CITY           SKY/WX    TMP DP  RH WIND       PRES   REMARKS
LK YELLOWSTONE   N/A     69  34  27 E3        30.52F
W YELLOWSTONE  NOT AVBL

$$
WYZ002>013-054>058-071-098>099-281800-
NORTHERN WYOMING

CITY           SKY/WX    TMP DP  RH WIND       PRES   REMARKS
JACKSON        SUNNY     72  39  30 CALM      30.40F
CODY           NOT AVBL
GREYBULL       SUNNY     82  40  22 CALM      30.25F
WORLAND        SUNNY     80  41  24 N5        30.27F
SHERIDAN       SUNNY     79  50  36 VRB3      30.29F
BUFFALO        SUNNY     76  48  37 VRB6      30.36F
GILLETTE       SUNNY     77  50  38 S10G17    30.32F
HULETT         FAIR      75  50  41 MISG      30.35
NEWCASTLE      FAIR      77  45  31 SE12G18   30.34

$$
WYZ014>020-022>026-101>103-281800-
CENTRAL WYOMING

CITY           SKY/WX    TMP DP  RH WIND       PRES   REMARKS
BIG PINEY      MOSUNNY   77  37  23 MISG      30.45F
PINEDALE       SUNNY     77  36  22 E5        30.46F
DUBOIS         FAIR      73  34  23 NE3       30.46S
LANDER         SUNNY     80  40  23 VRB5      30.35F
RIVERTON       SUNNY     76  43  30 VRB3      30.35F
CASPER         SUNNY     77  49  37 VRB7      30.36F
DOUGLAS        SUNNY     78  50  37 VRB5      30.36S

$$
WYZ021-027>030-104>119-281800-
SOUTHERN WYOMING

CITY           SKY/WX    TMP DP  RH WIND       PRES   REMARKS
EVANSTON       MOSUNNY   76  39  26 VRB6      30.43F
KEMMERER       MOSUNNY  N/A N/A N/A E6        30.44F
FORT BRIDGER   FAIR      74  40  28 W3        30.45F
ROCK SPRINGS   SUNNY     81  44  27 VRB5      30.40F
DIXON          FAIR      82  43  25 S8        30.42F
RAWLINS        SUNNY     79  44  28 E9        30.43F
SARATOGA       FAIR      75  43  31 E5        30.44F
LARAMIE        SUNNY     73  53  49 SE8       30.46F
CHEYENNE       SUNNY     76  54  46 S8G16     30.41S
TORRINGTON     SUNNY     74  54  49 SE10      30.32F
PINE BLUFFS    FAIR      81  52  36 E10       30.37S

$$


USA.gov is the U.S. government's official web portal to all federal, state and local government web resources and services.